Wetbulb
65.91 68.62 72.21 72.90 73.34 74.07 74.46 74.47 74.16 73.96 73.91 74.01 73.02 72.95 72.79 72.76 72.62 73.15 73.28 73.38 73.79 73.96 73.85 73.91 73.78 74.05 74.02 74.03 73.95 73.65 74.01 74.23 73.74 73.22 72.96 73.33 73.68 73.92 73.69 73.74 73.20 71.97 73.60
67.82 69.53 72.49 73.62 74.09 74.61 74.54 74.29 74.06 73.77 73.65 73.81 73.59 72.79 72.61 72.40 72.05 71.94 72.88 73.16 73.67 73.60 73.66 73.58 73.35 73.27 73.11 73.15 73.22 73.42 73.35 73.34 72.97 71.95 71.27 71.29 72.01 73.03 73.45 73.49 73.01 72.37 73.22
67.86 70.06 71.75 73.71 74.27 74.46 74.30 73.76 73.77 73.74 73.46 73.09 73.28 72.69 72.54 72.16 71.84 71.64 72.13 72.87 72.92 73.10 72.96 72.85 72.88 72.75 72.60 72.39 72.59 72.46 72.16 71.85 70.97 71.56 71.01 70.51 71.51 73.49 72.89 72.99 72.97 73.23 72.79
68.77 70.44 71.27 73.76 74.13 74.26 74.05 73.76 73.66 73.33 73.17 73.19 73.03 73.12 72.46 71.91 71.92 71.65 71.55 71.71 72.27 72.38 72.30 72.02 71.84 71.67 71.53 71.45 71.39 71.64 71.83 71.13 70.39 70.10 69.87 70.32 71.17 73.26 73.05 73.27 73.47 73.20 72.60
68.85 69.79 71.72 73.56 73.95 73.87 73.78 73.50 73.41 73.01 72.39 72.88 72.78 72.68 72.43 72.09 71.59 71.42 70.96 70.34 70.02 70.40 71.14 71.36 71.14 70.95 70.97 71.01 71.20 71.18 71.20 71.24 69.50 68.30 67.42 69.42 70.23 72.23 73.08 73.11 72.72 72.44 72.53
68.94 70.05 72.05 73.19 73.55 73.28 73.04 72.99 73.26 72.80 72.78 72.44 72.23 72.28 72.06 71.78 71.58 71.20 70.24 69.12 70.52 70.78 70.55 70.63 70.72 70.29 70.25 70.34 70.56 70.56 70.26 70.09 68.18 66.21 66.46 69.50 70.21 72.71 72.95 72.31 72.17 72.88 72.61
69.34 70.54 72.06 73.20 73.33 73.08 72.87 72.56 72.48 72.76 72.52 72.33 72.06 71.96 70.84 70.64 70.72 70.37 70.68 70.58 70.25 70.93 70.78 70.29 70.16 69.92 69.79 69.88 70.09 69.88 69.50 69.06 68.26 68.13 67.63 67.27 69.48 72.64 72.81 72.17 72.03 72.26 71.84
69.52 70.54 71.53 71.57 72.19 72.25 72.33 72.13 72.04 72.25 72.10 71.53 71.43 71.36 71.01 70.63 70.11 70.17 70.46 70.61 70.19 70.19 70.13 70.13 69.61 69.29 69.11 69.22 69.09 68.37 68.17 67.83 67.25 67.63 67.62 67.90 70.83 72.31 72.27 71.69 72.04 71.98 71.51
70.21 70.16 70.34 70.47 70.67 70.56 71.03 71.14 71.11 71.15 70.69 70.42 70.21 70.08 69.92 69.77 69.97 70.20 70.11 69.98 69.94 69.54 69.36 69.27 68.89 68.46 68.19 67.94 67.32 66.61 66.29 66.10 66.65 67.71 68.53 68.28 70.11 71.65 71.67 71.39 71.53 71.40 71.30
69.00 69.65 69.30 69.27 69.36 69.32 69.17 69.18 69.00 68.70 68.20 67.78 66.24 64.85 64.08 63.83 64.83 67.23 68.33 68.79 68.72 68.36 68.20 67.84 67.38 66.60 66.17 65.94 65.41 64.37 63.61 64.15 64.81 66.52 66.78 68.62 70.82 71.26 71.42 71.22 70.98 70.56 70.71
67.61 68.71 68.64 68.29 68.76 67.89 66.26 65.33 65.63 65.46 64.83 64.28 63.37 62.44 60.79 58.66 58.61 60.38 63.84 65.40 66.18 66.34 66.38 65.77 64.88 63.23 61.28 62.04 62.67 61.85 60.89 59.40 61.47 63.83 66.84 68.88 70.75 70.92 70.72 70.56 70.82 70.73 70.77
66.04 66.97 67.79 67.78 65.89 64.84 64.50 63.97 62.87 62.50 61.80 60.01 58.58 58.09 56.31 55.20 55.90 56.18 58.92 62.36 63.11 62.59 62.34 62.00 61.40 60.15 56.88 54.29 56.87 58.65 56.86 55.88 55.76 59.17 63.13 68.47 70.18 70.29 70.35 70.16 70.28 70.18 70.33
64.51 64.16 66.19 64.96 64.96 64.60 63.78 63.10 63.57 62.99 61.63 60.41 58.36 56.74 55.19 54.99 54.67 54.21 53.62 53.56 56.33 56.73 53.43 53.71 52.35 49.84 51.93 51.93 49.97 51.08 53.81 53.59 53.15 53.24 59.98 65.04 69.61 70.11 70.14 69.88 69.96 70.29 70.11
61.51 62.98 63.96 64.59 63.47 62.28 60.83 57.97 55.98 53.37 52.35 53.95 55.93 57.17 57.23 56.39 54.78 53.55 53.49 54.48 55.74 54.90 51.60 50.45 49.81 48.37 46.55 46.83 47.29 46.09 46.48 47.28 48.44 49.94 54.23 61.02 66.05 69.66 69.78 69.79 69.74 69.93 69.76
59.10 61.98 63.06 64.14 62.96 60.94 58.93 56.92 55.03 52.64 50.97 50.23 50.13 53.09 54.05 54.03 50.36 48.86 48.43 50.22 52.64 53.17 50.97 49.31 48.14 46.62 45.64 44.65 43.64 43.63 43.13 43.56 45.12 46.21 47.99 56.25 61.12 66.02 68.93 69.45 69.15 69.09 69.35
56.46 57.65 59.67 61.16 61.07 59.28 58.92 57.38 53.09 52.36 51.16 49.90 47.44 47.62 47.28 47.41 46.58 46.07 47.34 49.77 51.71 52.97 49.65 48.46 46.74 45.42 44.18 44.06 42.92 42.61 42.17 42.92 43.12 44.22 45.73 47.03 55.49 60.33 64.56 67.84 68.58 68.91 68.91
56.01 55.37 56.31 55.88 58.77 57.47 56.32 55.07 53.12 51.83 49.70 46.86 45.23 44.64 43.97 43.89 45.51 44.44 46.58 48.15 49.14 50.57 47.03 46.59 45.74 45.07 43.70 43.13 41.80 41.61 41.75 42.40 42.88 43.25 44.06 45.13 45.93 52.02 58.78 62.74 65.88 67.40 68.89
53.77 54.66 53.97 55.15 54.12 51.99 51.77 50.49 50.56 49.23 45.90 43.15 43.32 42.57 42.32 43.88 43.66 42.28 45.27 47.83 48.75 49.76 49.83 47.23 45.89 44.06 43.31 41.69 40.74 40.48 40.56 41.28 42.56 44.23 44.21 44.31 44.43 44.70 49.07 56.46 59.77 62.99 65.70
52.92 52.19 51.67 51.66 49.95 49.15 47.09 45.89 44.58 43.04 41.74 40.84 40.26 40.11 41.26 41.88 42.98 41.64 42.75 43.98 46.67 46.55 47.28 47.98 45.56 43.67 41.40 41.14 41.03 40.62 39.37 38.34 40.59 43.13 40.70 43.82 44.66 44.05 44.23 49.61 53.62 56.51 59.80
51.49 50.85 50.30 48.60 47.11 45.68 45.37 43.87 42.37 42.33 40.97 40.66 40.23 40.92 40.79 41.00 42.42 41.68 41.60 40.62 40.98 42.83 41.93 41.61 42.59 42.58 41.84 41.37 41.12 39.87 37.50 37.87 38.31 38.46 39.03 40.83 40.46 41.01 43.76 44.92 46.26 49.59 54.90
48.45 48.22 47.46 45.97 44.67 44.66 44.00 42.25 41.51 38.70 39.58 39.45 40.25 41.09 41.23 40.88 42.63 40.34 41.04 39.81 38.96 37.78 38.40 38.15 38.85 38.12 37.23 39.17 36.76 36.54 37.85 38.69 36.16 35.46 36.37 36.87 37.73 38.56 39.84 41.13 44.25 46.16 47.50
46.74 45.81 45.86 45.08 45.14 45.87 45.05 43.34 41.54 39.82 38.84 39.32 39.37 40.32 39.91 41.11 41.26 40.64 38.64 37.40 36.97 36.90 36.30 38.11 37.17 32.57 31.59 32.88 35.95 32.87 29.79 33.31 36.42 36.96 34.68 36.32 35.15 36.48 37.95 39.66 40.39 42.72 43.46
44.77 44.51 43.80 44.56 45.45 44.60 43.24 40.12 38.87 37.52 35.98 35.77 36.50 36.40 38.96 40.31 39.70 40.61 38.11 36.61 35.52 35.72 35.09 36.63 36.94 35.90 31.85 32.00 32.84 35.77 33.02 30.38 32.21 33.47 33.14 33.57 34.18 34.06 34.73 36.59 38.38 40.15 41.63
43.87 43.92 43.03 43.46 43.57 42.24 41.07 40.48 39.09 37.28 34.21 35.16 34.21 35.37 34.80 36.61 38.96 38.59 38.67 36.75 35.96 34.64 33.92 34.97 36.95 36.29 35.24 32.28 34.29 34.62 35.29 34.36 33.19 29.43 31.68 31.91 33.88 34.50 33.76 34.98 35.41 38.07 39.27
43.03 42.22 42.41 41.72 41.08 41.15 41.01 41.53 39.19 36.55 34.56 34.22 34.60 33.72 34.28 35.27 36.77 38.25 38.38 37.66 34.95 34.09 33.14 32.68 33.54 35.50 35.10 33.89 32.74 33.26 32.66 33.06 35.11 33.50 28.76 28.30 31.19 32.70 33.96 33.95 34.58 35.00 37.14
41.02 40.59 39.77 39.52 39.14 40.40 41.20 40.62 38.52 34.49 33.07 32.10 33.11 32.19 32.65 33.34 34.35 35.19 36.20 36.00 34.58 33.51 32.67 32.34 33.03 35.15 33.88 34.45 34.00 34.64 34.61 34.06 33.27 33.84 31.52 30.31 27.89 29.33 31.94 33.20 33.85 34.23 34.14
MSLP
1010.46 1011.07 1011.50 1011.97 1012.28 1012.65 1013.02 1013.41 1013.73 1014.20 1014.60 1014.83 1015.16 1015.45 1015.63 1015.79 1016.07 1016.32 1016.55 1016.69 1016.85 1016.85 1017.16 1017.29 1017.49 1017.58 1017.69 1017.88 1018.08 1018.29 1018.55 1018.72 1018.98 1019.13 1019.28 1019.21 1019.26 1019.17 1019.38 1019.51 1019.65 1019.89 1020.01
1010.04 1011.05 1011.58 1011.89 1012.27 1012.75 1013.15 1013.56 1014.00 1014.40 1014.83 1015.13 1015.42 1015.75 1015.94 1016.11 1016.37 1016.70 1016.93 1017.04 1017.11 1017.36 1017.52 1017.75 1018.01 1018.21 1018.32 1018.51 1018.73 1018.92 1019.13 1019.25 1019.40 1019.60 1019.65 1019.79 1019.86 1019.72 1019.81 1019.93 1020.26 1020.38 1020.48
1010.05 1010.96 1011.55 1012.01 1012.35 1012.83 1013.30 1013.76 1014.28 1014.66 1015.04 1015.43 1015.67 1016.12 1016.36 1016.58 1016.76 1017.19 1017.39 1017.51 1017.73 1017.93 1018.21 1018.34 1018.54 1018.80 1018.95 1019.17 1019.30 1019.45 1019.68 1019.83 1019.81 1019.77 1019.92 1020.18 1020.37 1020.26 1020.42 1020.51 1020.69 1020.78 1020.90
1009.95 1010.88 1011.48 1011.99 1012.53 1013.00 1013.41 1013.96 1014.47 1014.92 1015.18 1015.72 1016.13 1016.39 1016.73 1017.00 1017.31 1017.63 1017.90 1018.15 1018.32 1018.52 1018.84 1019.04 1019.22 1019.44 1019.67 1019.78 1019.83 1019.88 1019.99 1020.04 1019.94 1019.90 1020.23 1020.54 1020.67 1020.71 1020.79 1020.93 1021.03 1021.13 1021.30
1010.06 1010.70 1011.52 1012.04 1012.61 1013.19 1013.63 1014.10 1014.51 1015.10 1015.55 1015.84 1016.31 1016.77 1017.09 1017.42 1017.73 1017.99 1018.40 1018.68 1018.93 1019.33 1019.42 1019.72 1019.73 1019.95 1020.22 1020.24 1020.34 1020.43 1020.32 1020.28 1020.25 1020.39 1020.72 1021.01 1021.17 1021.18 1021.06 1021.23 1021.51 1021.70 1021.86
1010.08 1010.70 1011.64 1012.15 1012.71 1013.33 1013.79 1014.39 1014.67 1015.24 1015.72 1016.11 1016.59 1017.02 1017.48 1017.81 1018.06 1018.43 1018.88 1019.23 1019.39 1019.75 1020.07 1020.26 1020.16 1020.33 1020.70 1020.92 1020.93 1021.03 1020.83 1020.61 1020.64 1020.96 1021.28 1021.51 1021.63 1021.54 1021.58 1021.79 1022.06 1022.16 1022.35
1010.15 1010.92 1011.72 1012.29 1012.88 1013.46 1013.92 1014.54 1014.97 1015.33 1015.99 1016.47 1016.91 1017.37 1017.83 1018.26 1018.64 1018.99 1019.30 1019.62 1019.86 1020.12 1020.49 1020.77 1020.97 1020.95 1021.20 1021.44 1021.40 1021.52 1021.09 1021.02 1021.39 1021.65 1021.91 1022.09 1022.05 1022.01 1022.11 1022.35 1022.48 1022.61 1022.91
1010.29 1010.98 1011.75 1012.47 1013.10 1013.62 1014.11 1014.60 1015.18 1015.68 1016.18 1016.90 1017.33 1017.80 1018.27 1018.59 1019.06 1019.47 1019.83 1020.11 1020.37 1020.71 1021.00 1021.24 1021.52 1021.83 1021.87 1021.92 1022.03 1022.18 1021.91 1021.79 1021.94 1022.23 1022.53 1022.63 1022.56 1022.55 1022.73 1022.87 1022.88 1023.05 1023.31
1010.38 1011.17 1011.93 1012.62 1013.23 1013.74 1014.28 1014.80 1015.42 1016.00 1016.54 1017.34 1017.85 1018.40 1018.75 1019.13 1019.54 1019.93 1020.37 1020.75 1021.02 1021.34 1021.58 1021.88 1022.18 1022.53 1022.69 1022.57 1022.68 1022.75 1022.83 1022.93 1022.95 1022.93 1023.04 1023.28 1023.16 1023.04 1023.32 1023.36 1023.41 1023.56 1023.74
1010.84 1011.43 1012.01 1012.75 1013.43 1014.03 1014.49 1015.10 1015.68 1016.47 1017.24 1017.85 1018.59 1019.03 1019.57 1020.05 1020.31 1020.72 1021.04 1021.39 1021.67 1022.00 1022.37 1022.70 1022.90 1023.28 1023.44 1023.44 1023.42 1023.61 1023.81 1023.91 1023.98 1023.85 1023.90 1023.87 1023.57 1023.60 1023.74 1023.83 1023.95 1024.05 1024.19
1011.31 1011.62 1012.14 1012.83 1013.54 1014.29 1015.10 1015.77 1016.37 1017.11 1017.84 1018.52 1019.06 1019.33 1020.04 1020.70 1021.15 1021.61 1021.93 1022.12 1022.45 1022.83 1023.12 1023.45 1023.78 1024.16 1024.37 1024.46 1024.57 1024.62 1024.92 1025.27 1025.05 1025.00 1024.73 1024.31 1024.05 1024.12 1024.22 1024.30 1024.30 1024.44 1024.57
1011.57 1011.86 1012.47 1013.13 1013.86 1014.67 1015.50 1016.21 1016.91 1017.48 1018.03 1018.83 1019.42 1019.86 1020.61 1021.22 1021.60 1022.15 1022.62 1022.91 1023.23 1023.64 1023.94 1024.23 1024.58 1024.87 1024.99 1025.34 1025.56 1025.50 1026.11 1026.39 1026.45 1026.14 1025.73 1024.93 1024.55 1024.52 1024.61 1024.69 1024.73 1024.81 1024.90
1011.71 1012.18 1012.70 1013.56 1014.20 1014.88 1015.58 1016.40 1016.95 1017.53 1018.08 1018.77 1019.50 1020.15 1020.87 1021.30 1021.82 1022.38 1023.01 1023.41 1023.74 1024.23 1024.71 1025.03 1025.50 1025.89 1025.70 1026.18 1026.45 1026.59 1026.78 1026.99 1027.30 1027.42 1026.94 1025.99 1025.10 1025.03 1024.91 1024.95 1025.00 1025.16 1025.21
1012.13 1012.55 1013.14 1013.68 1014.48 1015.36 1016.03 1016.74 1017.32 1018.14 1018.79 1019.31 1019.77 1020.15 1020.56 1021.16 1021.82 1022.46 1022.99 1023.40 1023.76 1024.49 1025.19 1025.73 1026.19 1026.60 1026.95 1027.22 1027.31 1027.85 1027.95 1028.09 1028.05 1028.19 1027.97 1027.08 1026.29 1025.48 1025.31 1025.34 1025.29 1025.42 1025.55
1012.43 1012.78 1013.37 1013.84 1014.64 1015.51 1016.31 1017.29 1017.96 1018.75 1019.38 1019.86 1020.23 1020.40 1020.84 1021.26 1022.08 1022.69 1023.35 1023.82 1024.18 1024.92 1025.56 1026.18 1026.70 1027.09 1027.45 1027.95 1028.45 1028.37 1028.65 1028.68 1028.89 1029.05 1029.01 1028.39 1027.58 1026.88 1026.26 1025.93 1025.73 1025.76 1025.72
1012.73 1013.09 1013.66 1014.13 1014.72 1015.64 1016.56 1017.42 1018.37 1019.05 1019.67 1020.12 1020.74 1021.21 1021.46 1021.91 1022.57 1023.16 1023.80 1024.32 1024.66 1025.25 1026.09 1026.66 1027.28 1027.72 1028.14 1028.48 1028.75 1029.03 1029.27 1029.48 1029.64 1029.51 1029.69 1029.79 1029.15 1028.50 1027.56 1026.90 1026.52 1026.19 1026.22
1013.09 1013.49 1014.08 1014.54 1015.01 1016.00 1017.02 1017.74 1018.67 1019.31 1019.97 1020.60 1021.21 1021.73 1021.92 1022.48 1022.96 1023.58 1024.14 1024.77 1025.23 1025.77 1026.57 1027.18 1027.81 1028.30 1028.73 1029.09 1029.35 1029.75 1029.95 1029.98 1030.07 1030.24 1030.31 1030.45 1030.48 1029.95 1029.14 1028.53 1027.66 1027.16 1026.84
1013.24 1013.82 1014.50 1015.14 1015.75 1016.55 1017.48 1018.35 1019.06 1019.73 1020.39 1021.15 1021.46 1022.11 1022.91 1023.03 1023.31 1024.12 1024.54 1024.97 1025.49 1025.98 1026.62 1027.47 1028.14 1028.80 1029.38 1029.95 1030.36 1030.70 1030.81 1030.69 1030.54 1030.43 1030.71 1030.83 1031.01 1030.85 1030.60 1029.96 1029.34 1028.64 1028.09
1013.54 1014.18 1014.96 1015.93 1016.33 1017.21 1018.06 1018.99 1019.88 1020.54 1021.15 1021.76 1022.05 1022.81 1023.37 1023.65 1023.92 1024.65 1025.29 1025.65 1025.76 1026.33 1026.92 1027.61 1028.54 1028.80 1029.67 1030.29 1030.71 1031.06 1031.39 1031.45 1031.06 1030.88 1031.32 1031.32 1031.35 1031.27 1031.20 1031.12 1030.67 1030.30 1029.69
1013.92 1014.70 1015.34 1016.54 1017.00 1017.75 1018.81 1019.74 1020.58 1021.17 1021.92 1022.33 1022.95 1023.33 1023.85 1024.08 1024.42 1024.81 1025.86 1026.29 1026.58 1026.92 1027.71 1028.22 1028.77 1029.37 1029.84 1030.29 1030.98 1031.58 1031.91 1032.02 1031.95 1031.94 1032.08 1032.07 1032.06 1032.10 1031.81 1031.63 1031.52 1031.42 1031.13
1014.36 1015.23 1015.76 1016.77 1017.60 1017.99 1019.35 1020.03 1020.99 1021.74 1022.58 1023.05 1023.54 1023.83 1024.15 1024.72 1024.71 1025.61 1026.10 1026.53 1027.14 1027.77 1028.49 1028.80 1029.20 1029.92 1030.76 1030.98 1031.36 1032.20 1032.42 1032.38 1032.62 1032.68 1032.69 1032.90 1032.92 1032.91 1032.63 1032.50 1032.20 1032.26 1032.09
1014.45 1015.33 1016.15 1016.88 1017.55 1018.30 1018.86 1019.97 1020.87 1021.78 1023.01 1023.59 1023.82 1024.33 1024.63 1025.18 1025.35 1025.92 1026.42 1027.04 1027.46 1027.79 1028.75 1029.25 1029.55 1030.58 1031.66 1031.96 1031.95 1032.34 1033.05 1033.28 1033.24 1033.30 1033.46 1033.40 1033.70 1033.58 1033.50 1033.36 1033.21 1033.16 1033.21
1014.76 1015.55 1016.19 1017.14 1017.59 1018.47 1019.36 1019.98 1021.30 1022.43 1022.97 1024.17 1024.44 1025.07 1025.68 1025.47 1025.91 1026.10 1026.46 1027.49 1028.01 1028.07 1028.64 1029.23 1029.63 1030.16 1031.46 1032.32 1032.01 1032.18 1032.67 1033.11 1033.73 1034.20 1034.39 1034.40 1034.35 1034.37 1034.37 1034.22 1034.11 1034.13 1034.15
1015.28 1015.95 1016.56 1017.18 1017.80 1018.74 1019.49 1020.00 1020.75 1021.43 1023.36 1024.42 1024.83 1025.71 1025.85 1026.45 1026.60 1026.62 1026.83 1027.94 1028.21 1028.83 1029.04 1029.25 1029.55 1030.04 1030.80 1031.91 1032.34 1032.18 1032.24 1032.40 1033.09 1034.54 1035.01 1035.09 1034.97 1034.88 1035.05 1034.97 1034.92 1034.83 1034.83
1015.63 1016.26 1016.98 1017.56 1018.32 1019.07 1019.46 1019.91 1020.70 1021.99 1023.39 1024.12 1025.41 1025.73 1026.88 1027.03 1027.45 1026.99 1027.65 1028.04 1028.66 1029.32 1029.75 1029.97 1029.87 1030.25 1030.74 1031.61 1032.14 1032.52 1032.46 1032.48 1032.54 1033.32 1034.94 1035.61 1035.65 1035.63 1035.59 1035.64 1035.58 1035.65 1035.63
1016.33 1016.84 1017.36 1017.99 1018.70 1019.45 1019.74 1020.19 1021.10 1021.84 1022.89 1024.86 1025.50 1026.37 1026.97 1027.52 1027.75 1027.98 1028.37 1028.61 1029.05 1029.74 1030.23 1030.53 1030.64 1030.47 1030.83 1031.57 1032.04 1032.32 1032.52 1032.72 1032.94 1033.11 1034.23 1035.24 1035.87 1036.19 1036.05 1036.07 1036.08 1036.14 1036.28
Wind_Speed
10 13 17 15 16 15 16 14 15 15 15 14 14 13 12 12 11 11 13 15 16 18 18 19 18 19 20 20 21 21 18 19 18 17 14 14 14 18 19 19 17 14 18
17 13 15 15 16 17 16 15 15 15 15 14 15 14 14 13 13 12 13 16 19 20 20 21 21 21 21 21 20 18 17 16 16 15 13 14 15 18 20 18 15 15 18
18 14 13 15 17 17 17 15 15 15 15 14 15 15 15 15 15 15 16 19 21 22 21 22 22 21 21 18 17 16 14 11 6 15 14 8 11 18 18 16 15 17 19
17 14 13 14 17 17 17 16 15 16 16 16 16 16 16 16 17 18 19 23 21 22 22 22 21 20 19 16 14 13 11 8 3 7 9 9 10 14 16 15 15 18 18
16 13 13 17 18 17 17 16 16 15 17 18 18 18 18 19 18 19 21 22 22 20 20 20 21 20 18 16 15 13 12 12 12 13 9 9 6 12 14 15 14 17 16
16 13 14 18 18 17 17 16 16 16 18 19 20 20 20 20 20 18 18 19 16 18 18 19 19 19 18 16 17 16 14 9 7 10 10 11 6 15 16 16 14 16 16
12 14 14 18 18 17 18 16 16 18 19 21 21 21 21 21 21 20 18 15 16 19 20 19 19 19 18 18 21 23 20 14 12 9 9 6 7 16 16 15 14 15 14
12 14 14 17 17 17 17 17 17 18 19 20 20 20 20 21 21 21 19 18 18 21 21 22 22 20 19 21 22 25 26 18 10 10 9 6 10 15 16 14 14 15 15
11 14 13 12 13 15 16 17 18 19 19 18 19 21 22 20 19 20 19 20 22 22 23 23 23 22 20 22 23 25 25 23 13 9 10 5 11 15 15 14 14 14 15
9 14 13 12 12 12 12 20 24 25 26 27 27 27 24 24 25 24 18 19 22 23 23 23 23 23 23 23 24 26 23 20 13 11 7 6 12 15 14 14 12 12 13
6 12 13 13 13 14 16 19 24 26 25 23 19 21 16 10 13 17 20 22 23 23 21 20 20 19 19 21 23 23 19 9 11 9 8 9 15 15 13 12 12 12 13
10 8 12 12 15 16 12 14 13 14 11 10 9 11 9 9 10 13 16 20 22 22 21 20 19 18 14 8 7 16 8 10 9 10 10 23 13 14 13 10 10 11 12
5 4 11 16 15 14 12 11 7 7 7 8 11 10 10 8 7 6 5 5 7 12 7 10 9 7 10 7 9 8 9 8 7 7 17 27 20 15 12 9 9 9 11
8 12 15 16 14 12 9 7 6 6 4 4 7 8 7 6 5 5 5 4 5 6 9 8 6 9 10 10 12 10 10 8 6 5 14 27 27 24 16 11 8 9 11
10 13 14 15 14 11 11 8 7 7 5 5 5 6 5 6 7 6 5 5 5 8 7 7 7 8 10 10 9 10 10 10 10 6 6 26 29 28 25 24 11 7 10
8 11 9 12 13 11 11 10 7 7 8 6 5 5 8 6 5 6 6 5 5 8 7 7 7 7 8 7 10 10 10 9 9 10 7 9 25 28 29 27 28 15 11
9 9 11 11 12 13 10 10 7 7 7 7 7 7 8 7 8 7 6 6 5 9 11 8 8 7 7 7 10 8 7 8 8 9 8 7 8 21 28 28 29 27 24
11 11 10 8 11 13 10 8 7 6 7 6 7 6 7 9 9 6 7 7 6 6 8 7 6 7 7 6 6 6 5 6 7 9 8 7 7 7 14 26 28 29 27
12 12 12 9 12 13 12 9 9 8 7 6 7 6 7 6 9 7 6 5 7 6 6 8 5 5 7 7 7 6 5 5 6 7 8 9 9 8 6 16 23 26 26
12 12 14 9 12 13 10 9 8 8 6 7 6 6 7 5 9 9 6 6 6 7 6 7 8 5 5 6 8 7 5 4 5 5 6 6 7 8 7 9 8 11 24
12 12 14 15 12 11 10 8 6 6 7 7 6 8 7 6 7 7 7 7 6 8 6 6 6 9 5 4 4 4 5 7 7 5 5 5 6 6 8 7 7 5 8
14 12 12 13 14 10 8 6 5 7 6 6 6 7 7 6 7 6 6 6 6 9 9 6 4 4 3 4 2 3 3 3 5 6 5 5 7 5 7 8 8 10 8
13 14 13 13 14 11 13 11 10 8 7 3 6 5 4 6 6 7 8 6 5 5 7 6 6 6 4 2 5 2 3 3 3 3 6 5 6 5 5 6 7 7 8
10 10 12 12 12 12 13 13 15 8 9 3 6 5 7 7 7 7 9 7 6 4 6 6 5 5 5 4 2 3 3 3 3 2 3 4 5 6 6 5 5 8 8
10 11 11 12 11 11 10 12 10 11 9 8 7 11 7 7 7 9 7 8 7 5 6 5 7 6 4 4 3 1 3 3 2 4 3 1 4 4 4 4 5 5 7
8 9 11 13 11 8 10 10 14 15 15 11 9 8 6 5 6 8 7 7 7 6 6 5 5 6 7 5 4 3 2 3 1 3 4 3 4 2 3 4 4 4 4
Wind_Direction
132 142 152 155 149 148 138 133 127 128 127 124 117 111 105 101 103 106 109 106 101 95 92 91 89 86 87 83 81 79 79 82 83 77 64 57 77 100 100 90 84 84 84
127 143 154 154 151 142 136 130 127 127 127 126 119 114 110 103 99 102 111 107 98 95 91 89 89 90 92 89 86 85 85 92 100 96 82 62 69 86 81 82 87 89 83
129 139 153 152 144 139 131 131 128 128 127 124 116 117 108 105 103 105 107 97 94 90 87 86 81 79 83 84 86 86 81 78 51 103 87 78 73 80 85 89 90 92 90
132 142 144 146 139 134 132 131 130 131 129 123 117 113 108 105 103 102 104 88 82 81 82 81 81 79 76 71 72 73 75 79 70 21 84 71 78 82 93 90 92 95 92
134 148 136 141 136 136 134 131 132 134 129 123 117 110 107 104 106 106 99 101 96 85 85 80 82 78 71 68 59 44 34 26 58 63 63 78 64 78 87 87 86 93 92
139 129 134 139 136 136 132 133 130 125 127 120 116 110 102 98 97 103 109 111 115 112 98 91 82 80 71 60 50 34 18 4 58 71 65 62 63 77 83 86 89 97 95
114 128 133 136 135 134 130 131 130 126 125 124 118 111 112 106 101 99 97 108 112 107 101 92 85 80 74 59 49 41 28 72 67 64 64 58 62 78 83 88 88 90 95
129 133 135 135 135 134 131 128 129 130 128 124 120 116 111 110 108 100 94 97 101 97 94 89 82 74 71 62 52 47 41 42 59 75 63 48 70 75 84 83 89 87 99
136 132 134 134 130 125 123 123 125 124 122 122 109 100 92 94 103 103 97 96 94 95 92 85 77 72 67 61 53 50 47 42 39 46 58 49 65 76 78 80 85 90 97
132 135 140 134 129 120 115 110 108 104 103 103 102 93 87 79 77 74 88 96 94 91 84 82 82 74 69 64 59 52 47 43 40 40 28 48 66 73 71 75 80 87 91
128 143 139 140 131 116 111 109 106 109 108 106 105 98 89 87 83 77 77 81 85 82 83 78 76 75 68 60 66 61 52 39 42 33 29 49 68 67 65 70 80 88 92
151 151 145 128 120 118 120 116 116 122 120 118 109 103 101 101 100 91 85 87 88 85 82 74 68 66 64 51 49 62 58 49 38 35 28 30 62 67 62 64 74 93 98
130 115 117 125 127 127 128 129 134 122 127 124 118 115 120 118 108 107 103 100 100 84 71 67 64 48 53 58 49 47 53 51 47 33 29 32 42 43 53 68 78 100 102
118 119 126 131 121 122 115 102 85 89 66 86 110 130 127 118 110 100 98 100 99 88 85 75 73 75 68 61 62 56 49 45 44 40 27 35 34 44 49 44 75 106 108
132 130 136 135 126 131 113 115 105 108 96 86 73 73 83 101 101 99 90 83 83 96 93 87 83 78 73 71 70 68 60 50 46 40 38 38 38 38 49 53 53 95 109
141 125 125 124 126 120 124 121 110 108 110 96 77 81 80 86 90 95 94 85 70 102 95 89 88 88 85 83 75 67 68 64 55 55 48 35 40 40 43 46 50 56 79
152 126 124 110 120 123 120 113 116 122 107 102 101 82 83 90 98 103 102 86 72 94 97 90 86 82 78 71 73 66 61 62 66 60 57 48 33 36 42 42 47 51 55
136 132 111 128 115 105 105 95 108 102 98 97 91 93 83 94 88 80 103 107 94 83 110 99 99 90 80 72 71 58 53 61 65 67 62 57 52 33 36 42 44 44 48
136 134 117 116 113 109 95 86 79 78 85 85 77 73 77 96 100 96 84 90 98 87 82 108 91 91 95 88 79 70 52 40 39 67 59 53 51 44 42 40 45 44 44
133 126 123 121 118 108 103 94 89 87 76 74 81 83 76 74 100 102 100 87 84 96 83 89 99 83 94 95 83 71 61 55 50 52 56 52 48 35 37 40 38 40 46
129 131 133 134 129 127 128 120 110 107 100 88 81 85 84 70 83 97 116 106 98 100 96 100 100 91 54 59 90 55 48 51 43 41 55 55 49 39 41 31 37 34 38
140 136 137 141 144 137 123 121 115 117 95 84 91 82 75 79 82 107 102 89 116 117 113 109 83 101 80 22 122 119 108 17 40 35 33 54 52 45 45 40 37 47 39
141 147 142 152 146 138 126 115 99 104 81 81 60 66 64 71 80 91 96 94 85 112 122 119 120 118 126 47 62 120 125 146 127 14 34 42 57 51 44 44 37 50 57
138 135 133 137 136 139 145 135 148 137 132 116 99 107 62 49 68 82 86 89 83 69 98 121 108 104 108 122 104 37 74 114 130 106 27 33 44 46 42 41 44 47 46
133 136 133 120 126 141 140 154 124 120 113 102 114 89 88 71 53 66 84 98 81 81 69 82 106 105 103 117 111 133 60 39 63 135 147 89 36 41 42 46 51 60 56
111 121 127 126 120 132 130 131 135 131 130 138 114 110 99 88 80 76 74 79 96 89 86 74 67 94 104 100 108 75 100 103 61 94 110 126 136 37 61 50 52 62 70